Bloomington, IL

7:52 PM CDT on May 23, 2017 (GMT -0500)
Central Ill Regional

Weather History for KBMI - October, 2013

Change the Weather History Date:

Monday, October 7, 2013

  Actual Average Record
Temperature  
Mean Temperature 56 °F -  
Max Temperature 68 °F 57 °F 90 °F (2007)
Min Temperature 43 °F 46 °F 30 °F (2000)
Degree Days  
Heating Degree Days 10    
Growing Degree Days 6 (Base 50)    
Moisture  
Dew Point 45 °F    
Average Humidity 80    
Maximum Humidity 100    
Minimum Humidity 43    
Precipitation  
Precipitation 0.00 in - - ()
Sea Level Pressure  
Sea Level Pressure 29.97 in    
Wind  
Wind Speed 9 mph (West)    
Max Wind Speed 14 mph    
Max Gust Speed -    
Visibility 9 miles    
Events      
Averages and records for this station are not official NWS values.
T = Trace of Precipitation, MM = Missing Value Source: NWS Daily Summary

Daily Weather History Graph

Daily Weather History Graph

Search for Another Location

Airport or City:

Trip Planner

Search our weather history database for the weather conditions in past years. The results will help you decide how hot, cold, wet, or windy it might be!

Date:

Astronomy

Oct. 07, 2013 Rise Set
Actual Time 6:58 AM CDT 6:27 PM CDT
Civil Twilight 6:31 AM CDT 6:54 PM CDT
Nautical Twilight 5:59 AM CDT 7:26 PM CDT
Astronomical Twilight 5:27 AM CDT 7:58 PM CDT
Moon 9:49 AM CDT (10/7) 8:11 PM CDT (10/7)
Length of Visible Light 12h 23m
Length of Day
11h 29m
Waxing Crescent, 9% of the Moon is Illuminated
Oct 7
Waxing Crescent
Oct 11
First Quarter
Oct 18
Full
Oct 26
Last Quarter
Nov 3
New

Hourly Weather History & Observations

Time (CDT) Temp. Windchill Dew Point Humidity Pressure Visibility Wind Dir Wind Speed Gust Speed Precip Events Conditions
12:23 AM 44.6 °F 40.2 °F 42.8 °F 93% 29.83 in 10.0 mi West 8.1 mph - N/A   Mostly Cloudy
12:56 AM 45.0 °F 39.7 °F 43.0 °F 93% 29.84 in 10.0 mi West 10.4 mph - N/A   Mostly Cloudy
1:56 AM 45.9 °F 41.2 °F 43.9 °F 93% 29.87 in 10.0 mi West 9.2 mph - N/A   Overcast
2:03 AM 46.4 °F 41.9 °F 44.6 °F 93% 29.86 in 10.0 mi West 9.2 mph - N/A   Overcast
2:22 AM 46.4 °F 42.4 °F 44.6 °F 93% 29.86 in 10.0 mi West 8.1 mph - N/A   Overcast
2:35 AM 46.4 °F 41.9 °F 44.6 °F 93% 29.85 in 10.0 mi West 9.2 mph - N/A   Overcast
2:42 AM 46.4 °F 41.1 °F 44.6 °F 93% 29.86 in 10.0 mi West 11.5 mph - N/A   Overcast
2:56 AM 45.9 °F 41.2 °F 43.9 °F 93% 29.88 in 10.0 mi West 9.2 mph - N/A   Overcast
3:37 AM 44.6 °F 39.7 °F 44.6 °F 100% 29.87 in 10.0 mi West 9.2 mph - N/A   Mostly Cloudy
3:56 AM 45.9 °F 40.8 °F 43.9 °F 93% 29.89 in 10.0 mi West 10.4 mph - N/A   Mostly Cloudy
4:27 AM 44.6 °F 39.7 °F 42.8 °F 93% 29.89 in 10.0 mi West 9.2 mph - N/A   Scattered Clouds
4:56 AM 43.9 °F 39.9 °F 41.9 °F 93% 29.91 in 10.0 mi WSW 6.9 mph - N/A   Clear
5:31 AM 44.6 °F 39.2 °F 42.8 °F 93% 29.91 in 8.0 mi West 10.4 mph - N/A   Mostly Cloudy
5:56 AM 45.0 °F 40.1 °F 43.0 °F 93% 29.93 in 7.0 mi WSW 9.2 mph - N/A   Partly Cloudy
6:42 AM 44.6 °F 40.2 °F 44.6 °F 100% 29.92 in 7.0 mi West 8.1 mph - N/A   Partly Cloudy
6:56 AM 45.0 °F 38.9 °F 43.9 °F 96% 29.94 in 8.0 mi WSW 12.7 mph - N/A   Mostly Cloudy
7:05 AM 46.4 °F 41.9 °F 44.6 °F 93% 29.92 in 10.0 mi WSW 9.2 mph - N/A   Overcast
7:07 AM 46.4 °F 42.4 °F 44.6 °F 93% 29.92 in 10.0 mi WSW 8.1 mph - N/A   Overcast
7:56 AM 46.9 °F - 45.9 °F 96% 29.96 in 4.0 mi West 10.4 mph - N/A   Overcast
8:01 AM 46.4 °F 41.9 °F 46.4 °F 100% 29.95 in 1.8 mi West 9.2 mph - N/A   Overcast
8:56 AM 48.9 °F - 47.8 °F 96% 30.00 in 6.0 mi West 9.2 mph - 0.00 in   Overcast
9:38 AM 51.8 °F - 48.2 °F 88% 29.99 in 10.0 mi West 8.1 mph - N/A   Mostly Cloudy
9:56 AM 52.9 °F - 48.9 °F 86% 30.01 in 10.0 mi West 8.1 mph - N/A   Mostly Cloudy
10:56 AM 56.8 °F - 47.8 °F 72% 30.03 in 10.0 mi West 10.4 mph - N/A   Mostly Cloudy
11:09 AM 57.2 °F - 46.4 °F 67% 30.03 in 10.0 mi WNW 12.7 mph - N/A   Partly Cloudy
11:18 AM 57.2 °F - 48.2 °F 72% 30.03 in 10.0 mi WNW 10.4 mph - N/A   Scattered Clouds
11:56 AM 59.9 °F - 45.9 °F 60% 30.05 in 10.0 mi West 13.8 mph - N/A   Partly Cloudy
12:56 PM 63.0 °F - 45.0 °F 52% 30.04 in 10.0 mi West 10.4 mph - N/A   Clear
1:56 PM 65.8 °F - 43.0 °F 43% 30.04 in 10.0 mi West 10.4 mph - N/A   Clear
2:56 PM 66.9 °F - 43.9 °F 43% 30.03 in 10.0 mi West 12.7 mph - N/A   Clear
3:56 PM 68.0 °F - 45.0 °F 43% 30.04 in 10.0 mi West 12.7 mph - N/A   Clear
4:56 PM 66.9 °F - 43.9 °F 43% 30.04 in 10.0 mi West 9.2 mph - N/A   Clear
5:56 PM 65.8 °F - 45.0 °F 47% 30.05 in 10.0 mi West 8.1 mph - N/A   Clear
6:56 PM 61.9 °F - 45.9 °F 56% 30.06 in 10.0 mi WSW 5.8 mph - N/A   Clear
7:56 PM 55.9 °F - 45.9 °F 69% 30.08 in 10.0 mi SSW 5.8 mph - N/A   Clear
8:56 PM 54.9 °F - 45.9 °F 72% 30.10 in 10.0 mi SW 5.8 mph - N/A   Clear
9:56 PM 54.0 °F - 45.9 °F 74% 30.11 in 10.0 mi SW 6.9 mph - N/A   Clear
10:56 PM 54.0 °F - 45.9 °F 74% 30.12 in 10.0 mi SW 9.2 mph - N/A   Clear
11:56 PM 52.9 °F - 45.0 °F 74% 30.13 in 10.0 mi SW 6.9 mph - N/A   Clear